Location: Newark
(35.5936°N, 43.2312°E)
Time: 17:14:04
(UTC+00:00)

Hubble Space Telescope - Visible Passes

Search period start: 22 July 2019 00:00
Search period end: 01 August 2019 00:00
Orbit: 536 x 540 km, 28.5° (Epoch: 22 July)

Date Brightness Start Highest point End Pass type
(mag) Time Alt. Az. Time Alt. Az. Time Alt. Az.
28 Jul 3.0 00:34:43 12° SSE 00:35:03 12° SSE 00:36:45 10° SE visible
29 Jul 2.9 00:24:41 15° SSE 00:24:41 15° SSE 00:26:45 10° SE visible
30 Jul 2.8 00:14:39 16° SSE 00:14:39 16° SSE 00:16:32 10° ESE visible
31 Jul 2.8 00:04:37 17° SE 00:04:37 17° SE 00:06:12 10° ESE visible
31 Jul 1.9 01:40:12 10° WSW 01:43:51 30° S 01:47:29 10° ESE visible
31 Jul 3.0 23:54:38 15° SE 23:54:38 15° SE 23:55:46 10° ESE visible
